Powrót do katalogu

STARLINK-37266

AktywnyŁącznośćSSO
NORAD 68780·PAYLOAD·🇺🇸 United States

Wystrzelony Apr 19, 2026 z Vandenberg Space Force Base

Loading…

Następne Przeloty (najbliższe 24 godziny)

TLE

ŚwieżeSource: CelesTrak SupGP

Epoka: Sep 15, 2026, 03:56 UTC

1 68780C 26086Q   26258.16437500 -.00052505  00000+0 -16298-2 0  2584
2 68780  97.2842 293.6887 0001088  93.9085  82.8789 15.33468107    18

Śledź STARLINK-37266 w czasie rzeczywistym z AllMySat

Download on the App Store